K4KJQ-13 Weather Reports


time (UTC)temp
C
wind
direction
speed
KPH
gust
KPH
rain 1hr
cm
rain 24hr
cm
rain mn
cm
humidity
%
barometer
mb
20260505130111 18 299 12.9 17.7 0.00 0.00 0.00 100
20260505124611 18 296 3.2 17.7 0.00 0.00 0.00 100
20260505124111 18 312 1.6 14.5 0.00 0.00 0.00 100
20260505123611 18 320 4.8 12.9 0.00 0.00 0.00 100
20260505123111 18 306 4.8 14.5 0.00 0.00 0.00 100
20260505122611 17 295 8.0 14.5 0.00 0.00 0.00 100
20260505122111 17 302 4.8 11.3 0.00 0.00 0.00 100
20260505121611 17 286 3.2 9.7 0.00 0.00 0.00 100
20260505121111 17 293 1.6 6.4 0.00 0.00 0.00 100
20260505120611 17 302 0.0 3.2 0.00 0.00 0.00 100
20260505120111 17 305 0.0 3.2 0.00 0.00 0.00 100
20260505115611 17 278 0.0 4.8 0.00 0.00 0.00 100
20260505115111 17 324 1.6 4.8 0.00 0.00 0.00 100
20260505114611 16 331 3.2 9.7 0.00 0.00 0.00 100
20260505114111 16 303 8.0 11.3 0.00 0.00 0.00 100
20260505113611 16 291 9.7 11.3 0.00 0.00 0.00 100
20260505113111 17 307 6.4 14.5 0.00 0.00 0.00 100
20260505112611 16 288 6.4 12.9 0.00 0.00 0.00 100
20260505112111 16 307 3.2 12.9 0.00 0.00 0.00 100
20260505111611 16 282 4.8 16.1 0.00 0.00 0.00 100
20260505111111 16 292 11.3 12.9 0.00 0.00 0.00 100
20260505110611 16 295 11.3 14.5 0.00 0.00 0.00 100
20260505110111 16 288 4.8 12.9 0.00 0.00 0.00 100
20260505102111 16 292 6.4 14.5 0.00 0.05 0.00 100
20260505101611 16 302 4.8 17.7 0.00 0.05 0.00 100
20260505101111 16 298 9.7 14.5 0.00 0.05 0.00 100
20260505100611 16 296 11.3 16.1 0.00 0.05 0.00 100
20260505100111 16 291 6.4 17.7 0.00 0.05 0.00 100
20260505095611 16 307 6.4 14.5 0.00 0.05 0.00 100
20260505095111 17 296 8.0 17.7 0.00 0.05 0.00 100
20260505094611 16 306 11.3 19.3 0.00 0.05 0.00 100
20260505094111 16 299 11.3 16.1 0.00 0.05 0.00 100
20260505093611 17 310 9.7 16.1 0.00 0.05 0.00 100
20260505093111 17 288 8.0 19.3 0.00 0.56 0.00 100
20260505092611 17 313 6.4 17.7 0.00 0.56 0.00 100
20260505092111 17 299 8.0 17.7 0.00 0.56 0.00 100
20260505091611 17 292 12.9 19.3 0.00 0.56 0.00 100
20260505091111 17 292 6.4 20.9 0.00 0.56 0.00 100
20260505090611 17 293 4.8 17.7 0.00 0.56 0.00 100
20260505090112 17 303 9.7 20.9 0.00 0.56 0.00 100
20260505085611 17 309 6.4 16.1 0.00 0.56 0.00 100
20260505085111 17 298 9.7 19.3 0.00 0.56 0.00 100
20260505084612 17 268 12.9 24.1 0.00 0.56 0.00 100
20260505084111 17 282 6.4 19.3 0.00 0.56 0.00 100
20260505083611 17 289 4.8 17.7 0.00 0.56 0.00 100
20260505083112 17 306 8.0 20.9 0.00 0.61 0.00 100
20260505082612 17 299 8.0 20.9 0.00 0.61 0.00 100
20260505082111 17 296 4.8 17.7 0.00 0.61 0.00 100
20260505081611 17 288 8.0 27.4 0.00 0.61 0.00 100
20260505081111 17 323 8.0 20.9 0.00 0.61 0.00 100
20260505080611 17 300 4.8 22.5 0.00 0.61 0.00 100
20260505080111 17 299 22.5 22.5 0.00 0.61 0.00 100
20260505075611 18 288 11.3 25.7 0.00 0.61 0.00 100
20260505075111 17 277 14.5 19.3 0.00 0.61 0.00 100
20260505074611 17 315 8.0 22.5 0.00 0.61 0.00 100
20260505074111 18 299 12.9 22.5 0.00 0.61 0.00 100
20260505073611 18 289 4.8 22.5 0.00 0.61 0.00 100
20260505073111 18 299 11.3 19.3 0.00 0.61 0.00 100
20260505072611 18 292 12.9 27.4 0.00 0.61 0.00 100
20260505072119 18 291 11.3 29.0 0.00 0.61 0.00 100
20260505071611 18 293 22.5 33.8 0.00 0.61 0.00 100
20260505071111 18 299 9.7 30.6 0.00 0.61 0.00 100
20260505070611 18 305 8.0 25.7 0.00 0.61 0.00 100
20260505070111 18 302 11.3 25.7 0.00 0.61 0.00 100
20260505065611 18 275 11.3 20.9 0.00 0.61 0.00 100
20260505065111 18 275 14.5 27.4 0.00 0.61 0.00 100
20260505064611 18 291 16.1 24.1 0.00 0.61 0.00 100
20260505064111 18 298 9.7 17.7 0.00 0.61 0.00 100
20260505063611 18 302 8.0 22.5 0.00 0.61 0.00 100
20260505063111 18 286 11.3 25.7 0.00 0.61 0.00 100
20260505062611 18 278 12.9 22.5 0.00 0.61 0.00 100
20260505062112 18 296 11.3 25.7 0.00 0.61 0.00 100
20260505061611 18 274 9.7 27.4 0.00 0.61 0.00 100
20260505061112 18 292 17.7 22.5 0.00 0.61 0.00 100
20260505060611 18 303 11.3 25.7 0.00 0.61 0.00 100
20260505060111 19 299 14.5 29.0 0.00 0.61 0.00 100
20260505055612 18 281 11.3 25.7 0.00 0.61 0.00 100
20260505055112 19 295 11.3 29.0 0.00 0.61 0.00 100
20260505054612 18 270 9.7 24.1 0.00 0.61 0.00 100
20260505054112 18 291 12.9 24.1 0.00 0.61 0.00 100
20260505053611 18 288 11.3 24.1 0.00 0.61 0.00 100
20260505053112 18 284 4.8 20.9 0.00 0.64 0.00 100
20260505052612 19 279 9.7 19.3 0.00 0.64 0.00 100
20260505052112 18 315 8.0 22.5 0.00 0.64 0.00 100
20260505051611 19 284 11.3 20.9 0.00 0.64 0.00 100
20260505051112 19 288 9.7 19.3 0.00 0.64 0.00 100
20260505050612 19 291 9.7 22.5 0.00 0.64 0.00 100
20260505050112 19 271 9.7 19.3 0.00 0.64 0.00 100
20260505041612 20 303 6.4 20.9 0.00 0.64 0.00 100
20260505041112 19 305 14.5 14.5 0.00 0.64 0.00 100
20260505040612 19 302 12.9 16.1 0.00 0.64 0.00 100
20260505040112 19 329 12.9 17.7 0.00 0.64 0.00 100
20260505035612 20 306 4.8 17.7 0.00 0.64 0.00 100
20260505035112 20 286 9.7 12.9 0.00 0.64 0.00 100
20260505034612 20 289 9.7 16.1 0.00 0.64 0.00 100
20260505034112 20 277 11.3 16.1 0.00 0.64 0.00 100
20260505033612 20 291 9.7 19.3 0.00 0.64 0.00 100
20260505033112 20 310 8.0 20.9 0.00 0.64 0.00 100
20260505032612 20 296 19.3 20.9 0.00 0.64 0.00 100
20260505032112 20 281 14.5 20.9 0.00 0.64 0.00 100
20260505031612 20 265 9.7 20.9 0.00 0.64 0.00 100
20260505031112 20 289 19.3 24.1 0.00 0.64 0.00 100
20260505030612 20 295 6.4 19.3 0.00 0.64 0.00 100
20260505030112 20 309 3.2 19.3 0.00 0.64 0.00 100
20260505025612 20 282 11.3 19.3 0.00 0.64 0.00 100
20260505025112 20 296 12.9 19.3 0.00 0.64 0.00 100
20260505024612 20 285 9.7 19.3 0.00 0.64 0.00 100
20260505024112 20 296 12.9 20.9 0.00 0.64 0.00 100
20260505023612 20 291 12.9 19.3 0.00 0.64 0.00 100
20260505023112 20 299 6.4 17.7 0.00 0.64 0.00 100
20260505022612 20 291 9.7 20.9 0.00 0.64 0.00 100
20260505022112 20 293 17.7 17.7 0.00 0.64 0.00 100
20260505021612 20 285 11.3 19.3 0.00 0.64 0.00 100
20260505021112 20 300 9.7 17.7 0.00 0.64 0.00 100
20260505020612 20 289 11.3 20.9 0.00 0.64 0.00 100
20260505020112 21 293 14.5 19.3 0.00 0.64 0.00 100
20260505015612 20 299 12.9 19.3 0.00 0.64 0.00 100
20260505015112 21 282 12.9 19.3 0.00 0.64 0.00 100
20260505014612 21 291 12.9 17.7 0.00 0.64 0.00 100
20260505014112 21 288 8.0 20.9 0.00 0.64 0.00 100
20260505013612 21 275 16.1 17.7 0.00 0.64 0.00 100
20260505013112 21 302 12.9 19.3 0.00 0.64 0.00 100
20260505012612 21 302 11.3 20.9 0.00 0.64 0.00 100
20260505012112 21 296 14.5 20.9 0.00 0.64 0.00 100
20260505011612 21 288 14.5 20.9 0.00 0.64 0.00 100
20260505011112 22 299 8.0 20.9 0.00 0.64 0.00 100
20260505010612 22 298 12.9 19.3 0.00 0.64 0.00 100
20260505010112 22 275 6.4 17.7 0.00 0.64 0.00 100
20260505005612 22 285 12.9 16.1 0.00 0.64 0.00 100
20260505005112 22 305 9.7 20.9 0.00 0.64 0.00 100
20260505004612 22 274 9.7 24.1 0.00 0.64 0.00 100
20260505004112 22 289 12.9 22.5 0.00 0.64 0.00 100
20260505003612 22 296 11.3 20.9 0.00 0.64 0.00 100
20260505003112 22 300 12.9 19.3 0.00 0.64 0.00 100
20260505002612 22 278 8.0 19.3 0.00 0.64 0.00 100
20260505002112 22 300 6.4 20.9 0.00 0.64 0.00 100
20260505001612 22 303 9.7 22.5 0.00 0.64 0.00 100
20260505001112 23 275 9.7 17.7 0.00 0.64 0.00 100
20260505000612 23 317 6.4 19.3 0.00 0.64 0.00 100
20260505000112 23 289 12.9 24.1 0.00 0.64 0.00 100
20260504235612 23 326 8.0 19.3 0.00 0.64 0.00 100
20260504235112 23 298 8.0 17.7 0.00 0.64 0.00 100
20260504234612 23 299 4.8 14.5 0.00 0.64 0.00 100
20260504234112 23 300 6.4 20.9 0.00 0.64 0.00 100
20260504233612 24 299 4.8 12.9 0.00 0.64 0.00 100
20260504233112 23 281 9.7 14.5 0.00 0.64 0.00 100
20260504232612 24 305 9.7 16.1 0.00 0.64 0.00 100
20260504232112 24 298 9.7 22.5 0.00 0.64 0.00 100
20260504231612 24 260 9.7 25.7 0.00 0.64 0.00 100
20260504231112 24 306 9.7 25.7 0.00 0.64 0.00 100
20260504230612 24 312 6.4 24.1 0.00 0.64 0.00 100
20260504230112 25 313 12.9 27.4 0.00 0.64 0.00 100
20260504225612 25 299 12.9 20.9 0.00 0.64 0.00 100
20260504225112 25 292 14.5 24.1 0.00 0.64 0.00 100
20260504224612 25 307 17.7 38.6 0.00 0.64 0.00 100
20260504224112 25 282 22.5 38.6 0.00 0.64 0.00 100
20260504223612 25 295 14.5 24.1 0.00 0.64 0.00 100
20260504223112 25 309 4.8 20.9 0.00 0.64 0.00 100
20260504222612 26 345 14.5 27.4 0.00 0.64 0.00 100
20260504222112 27 306 9.7 17.7 0.00 0.64 0.00 100
20260504221612 26 302 12.9 24.1 0.00 0.64 0.00 100
20260504221112 26 300 9.7 24.1 0.00 0.64 0.00 100
20260504220612 26 278 3.2 25.7 0.00 0.64 0.00 100
20260504220112 26 338 6.4 29.0 0.00 0.64 0.00 100
20260504215612 26 305 6.4 29.0 0.00 0.64 0.00 100
20260504215112 26 320 14.5 30.6 0.00 0.64 0.00 100
20260504214612 26 295 3.2 22.5 0.00 0.64 0.00 100
20260504214112 26 279 11.3 25.7 0.00 0.64 0.00 100
20260504213612 26 288 8.0 27.4 0.00 0.64 0.00 100
20260504213112 26 323 6.4 27.4 0.00 0.64 0.00 100
20260504212612 26 309 14.5 30.6 0.00 0.64 0.00 100
20260504212112 26 302 11.3 29.0 0.00 0.64 0.00 100
20260504211612 25 309 11.3 35.4 0.00 0.64 0.00 100
20260504211112 26 299 14.5 29.0 0.00 0.64 0.00 100
20260504210612 26 295 8.0 22.5 0.00 0.64 0.00 100
20260504210112 26 306 9.7 22.5 0.00 0.64 0.00 100
20260504205612 25 306 8.0 27.4 0.00 0.64 0.00 100
20260504205112 26 305 9.7 25.7 0.00 0.64 0.00 100
20260504204612 26 291 8.0 27.4 0.00 0.64 0.00 100
20260504204112 26 319 12.9 29.0 0.00 0.64 0.00 100
20260504203612 26 331 9.7 29.0 0.00 0.64 0.00 100
20260504203112 26 295 9.7 22.5 0.00 0.64 0.00 100
20260504202612 26 298 8.0 24.1 0.00 0.64 0.00 100
20260504202112 25 315 4.8 30.6 0.00 0.64 0.00 100
20260504201612 26 302 14.5 32.2 0.00 0.64 0.00 100
20260504201112 26 326 1.6 27.4 0.00 0.64 0.00 100
20260504200612 26 300 9.7 22.5 0.00 0.64 0.00 100
20260504200112 26 306 11.3 27.4 0.00 0.64 0.00 100
20260504195612 26 306 12.9 27.4 0.00 0.64 0.00 100
20260504195112 26 265 14.5 32.2 0.00 0.64 0.00 100
20260504194612 26 336 4.8 25.7 0.00 0.64 0.00 100
20260504194112 26 307 4.8 25.7 0.00 0.64 0.00 100
20260504193612 26 296 17.7 27.4 0.00 0.64 0.00 100
20260504193112 25 302 3.2 29.0 0.00 0.64 0.00 100
20260504192612 26 274 16.1 22.5 0.00 0.64 0.00 100
20260504192112 25 307 9.7 27.4 0.00 0.64 0.00 100
20260504191612 25 303 8.0 33.8 0.00 0.64 0.00 100
20260504191112 25 306 8.0 33.8 0.00 0.64 0.00 100
20260504190612 25 255 8.0 24.1 0.00 0.64 0.00 100
20260504190112 25 278 9.7 22.5 0.00 0.64 0.00 100
20260504185612 25 292 12.9 22.5 0.00 0.64 0.00 100
20260504185112 25 295 9.7 30.6 0.00 0.64 0.00 100
20260504184612 25 300 9.7 24.1 0.00 0.64 0.00 100
20260504184112 25 300 4.8 29.0 0.00 0.64 0.00 100
20260504183612 25 285 11.3 24.1 0.00 0.64 0.00 100
20260504183112 25 306 11.3 25.7 0.00 0.64 0.00 100
20260504182612 24 267 14.5 29.0 0.00 0.64 0.00 100
20260504182112 23 292 12.9 33.8 0.00 0.64 0.00 100
20260504181612 23 305 14.5 29.0 0.00 0.64 0.00 100
20260504181112 24 281 12.9 19.3 0.00 0.64 0.00 100
20260504180612 23 319 8.0 30.6 0.00 0.64 0.00 100
20260504180112 23 299 14.5 37.0 0.00 0.64 0.00 100
20260504175612 23 302 9.7 24.1 0.00 0.64 0.00 100
20260504175112 23 270 9.7 30.6 0.00 0.64 0.00 100
20260504174612 22 303 17.7 35.4 0.00 0.64 0.00 100
20260504174112 22 288 20.9 35.4 0.00 0.64 0.00 100
20260504173612 23 278 8.0 27.4 0.00 0.64 0.00 100
20260504173112 23 295 4.8 25.7 0.00 0.64 0.00 100
20260504172612 22 303 12.9 37.0 0.00 0.64 0.00 100
20260504172112 23 279 19.3 35.4 0.00 0.64 0.00 100
20260504171612 22 253 19.3 29.0 0.00 0.64 0.00 100
20260504171112 22 272 16.1 37.0 0.00 0.64 0.00 100
20260504170612 22 275 19.3 32.2 0.00 0.64 0.00 100
20260504170112 22 289 17.7 29.0 0.00 0.64 0.00 100
20260504160112 19 279 17.7 27.4 0.00 0.64 0.00 100
20260504151112 15 309 19.3 32.2 0.00 0.64 0.00 100
20260504150612 16 292 17.7 33.8 0.00 0.64 0.00 100
20260504150112 16 271 14.5 33.8 0.00 0.64 0.00 100
20260504141112 13 284 16.1 24.1 0.00 0.64 0.00 100
20260504140612 12 291 20.9 25.7 0.00 0.64 0.00 100
20260504140112 13 284 17.7 17.7 0.00 0.64 0.00 100